Location: Glendale
(37.4556°N, 88.6714°W)
Time: 23:59:48
(UTC+00:00)

Cosmos 1627 Rocket - Pass Details

Date: 08 December 2019
Orbit: 951 x 1003 km, 82.9° (Epoch: 18 January)

Event Time Altitude Azimuth Distance (km) Brightness Sun altitude
Rises 00:01:13 0° 177° (S) 3,617 7.7 -16.4°
Reaches altitude 10° 00:03:43 10° 175° (S) 2,672 6.9 -16.9°
Maximum altitude 00:09:45 68° 93° (E) 1,023 4.4 -18.0°
Drops below altitude 10° 00:15:50 10° 12° (NNE) 2,686 6.5 -19.2°
Sets 00:18:21 0° 10° (N) 3,638 7.3 -19.7°
